AirNav   Air Wisconsin pilot careers
 
 383 users online  

67R Rio Grande City Municipal Airport
Rio Grande City, Texas, USA

GOING TO RIO GRANDE CITY?


FAA INFORMATION EFFECTIVE 06 DECEMBER 2018

Location

FAA Identifier: 67R
Lat/Long: 26-25-27.4200N / 098-50-45.8900W
26-25.457000N / 098-50.764833W
26.4242833 / -98.8460806
(estimated)
Elevation: 290.3 ft. / 88.5 m (surveyed)
Variation: 07E (1990)
From city: 3 miles NW of RIO GRANDE CITY, TX
Time zone: UTC -6 (UTC -5 during Daylight Saving Time)
Zip code: 78582

Airport Operations

Airport use: Open to the public
Activation date: 03/1971
Control tower: no
ARTCC: HOUSTON CENTER
FSS: SAN ANGELO FLIGHT SERVICE STATION
NOTAMs facility: SJT (NOTAM-D service available)
Attendance: UNATNDD
Wind indicator: lighted
Segmented circle: yes
Lights: MIRL RY 16/34 PRESET LOW INTST; TO INCR INTST ACTVT - CTAF.
Beacon: white-green (lighted land airport)
Operates sunset to sunrise.

Airport Communications

CTAF: 122.9

Nearby radio navigation aids

VOR radial/distance  VOR name  Freq  Var
MFEr286/35.9MC ALLEN VOR/DME117.2009E

Airport Services

Parking: tiedowns

Runway Information

Runway 16/34

Dimensions: 4000 x 75 ft. / 1219 x 23 m
Surface: asphalt, in good condition
Weight bearing capacity: 
Single wheel: 12.5
Runway edge lights: medium intensity
RUNWAY 16  RUNWAY 34
Latitude: 26-25.707367N26-25.081167N
Longitude: 098-50.858500W098-50.626000W
Elevation: 290.3 ft.273.1 ft.
Gradient: 0.5%0.5%
Traffic pattern: leftleft
Runway heading: 155 magnetic, 162 true335 magnetic, 342 true
Markings: nonprecision, in good conditionnonprecision, in good condition
Touchdown point: yes, no lightsyes, no lights
Obstructions: none10 ft. brush, 200 ft. from runway, 57 ft. left of centerline
SCATTERED +10 FT BRUSH 50-200 FT FM THLD ACROSS APPROACH.

Airport Ownership and Management from official FAA records

Ownership: Publicly-owned
Owner: CITY OF RIO GRANDE CITY
5332 E. US-83
RIO GRANDE CITY, TX 78582
Phone 956-487-0672
Manager: RICARDO REYES
5332 E. US-83
RIO GRANDE CITY, TX 78582
Phone 956-487-5312
FIRE CHIEF

Airport Operational Statistics

Aircraft based on the field: 1
Helicopters: 1
    
Aircraft operations: avg 35/week *
99% local general aviation
1% transient general aviation
* for 12-month period ending 02 February 2017

Additional Remarks

ARPT GATE CLSD AND LOCKED CALL 956-487-5312 FOR ACCESS. NO PUBLIC PHONE WITHIN ARPT PROPERTY.

Instrument Procedures

There are no published instrument procedures at 67R.

Some nearby airports with instrument procedures:

KMFE - Mc Allen Miller International Airport (36 nm SE)
KEBG - South Texas International Airport at Edinburg (39 nm E)
KTXW - Mid Valley Airport (49 nm E)
KHBV - Jim Hogg County Airport (56 nm N)
KBKS - Brooks County Airport (61 nm NE)
 
Loc | Ops | Rwys | IFR | FBO | Links
Com | Nav | Svcs | Stats | Notes


 
Area around 67R (Rio Grande City Municipal Airport)
 
Road maps at: MapQuest Bing Google
 
Aerial photo
WARNING: Photo may not be current or correct
Aerial photo of 67R (Rio Grande City Municipal Airport)
Photo taken 22-Feb-2008
from about 2000ft looking almost due south

Do you have a better or more recent aerial photo of Rio Grande City Municipal Airport that you would like to share? If so, please send us your photo.

 
Sectional chart

 
Airport distance calculator
Flying to Rio Grande City Municipal Airport? Find the distance to fly.

From to 67R

Sunrise and sunset
Times for 17-Dec-2018
 Local
(UTC-6)
 Zulu
(UTC)
Morning civil twilight06:5312:53
Sunrise07:1813:18
Sunset17:4523:45
Evening civil twilight18:1000:10

Current date and time
Zulu (UTC)  17-Dec-2018 11:09:16
Local (UTC-6)  17-Dec-2018 05:09:16
 
METAR
KMFE 
35nm SE 
171053Z AUTO 00000KT 10SM CLR 09/08 A3025 RMK AO2 SLP242 T00940083
KEBG 
39nm E 
171055Z AUTO 00000KT 10SM CLR 09/07 A3025 RMK AO2 T00880069
KAPY 
39nm NW 
171055Z AUTO 00000KT 10SM CLR 07/03 A3026 RMK AO2 T00780040
MMRX 
42nm SE 
170444Z 00000KT 7SM BKN120 11/05 A3030 RMK 8/030 HZY FU
KTXW 
49nm E 
171055Z AUTO 00000KT 10SM SCT110 08/07 A3024 RMK AO2 T00830068
TAF
KMFE 
35nm SE 
170520Z 1706/1806 VRB04KT P6SM SCT250
MMRX 
42nm SE 
170507Z 1706/1806 00000KT P6SM BKN120 BKN250 FM171800 14008KT P6SM SCT030 SCT090 BKN240 TEMPO 1721/1801 BKN030 FM180500 13004KT P6SM SCT090 SCT250
NOTAMs
Click for the latest NOTAMs
NOTAMs are issued by the DoD/FAA and will open in a separate window not controlled by AirNav.

 

 
 

Would you like to see your business listed on this page?

 If your business provides an interesting product or service to pilots, flight crews, aircraft, or users of the Rio Grande City Municipal Airport, you should consider listing it here.  To start the listing process, click on the button below
 
Add a business
 

Other Pages about Rio Grande City Municipal Airport

Update a link
 
Copyright © AirNav, LLC. All rights reserved. Privacy Policy  Contact